Location: Indian Springs
(36.5700°N, 115.6700°W)
Time: 22:30:16
(UTC-07:00)

Daily predictions for brighter satellites

Satellite Brightness Start Highest point End
(mag) Time Altitude Azimuth Time Altitude Azimuth Time Altitude Azimuth
FREGAT/IRIS 2.6 19:22:35 10° SSE 19:25:36 62° ENE 19:28:39 10° N
Lacrosse 5 1.9 19:20:38 10° SW 19:25:43 87° SE 19:30:48 10° NE
Tiangong 1 1.3 19:28:50 10° WNW 19:31:43 50° NNE 19:34:26 11° E
Cosmos 1805 4.3 19:29:02 10° SE 19:32:11 24° E 19:35:20 10° NE
HJ-1C 3.6 19:32:47 10° SSE 19:36:04 48° ENE 19:39:22 10° N
Okean 3 Rocket 4.4 19:34:02 10° NNE 19:37:53 29° ENE 19:41:43 10° SE
Cosmos 1437 Rocket 3.3 19:35:01 10° SSW 19:38:57 65° W 19:43:00 10° N
Geosat 4.4 19:34:55 10° NE 19:39:37 39° ESE 19:44:16 10° S
Cosmos 1934 Rocket 3.9 19:35:16 10° S 19:41:23 75° E 19:47:28 10° N
Cosmos 1378 3.2 19:41:53 10° N 19:45:38 81° W 19:49:22 10° S
USA 186 3.3 19:46:32 11° NE 19:46:32 11° NE 19:46:47 10° NE
Meteor 1-22 Rocket 4.3 19:40:10 10° S 19:45:56 86° E 19:51:59 10° N
SL-27 R/B 2.5 19:42:41 10° N 19:46:16 60° ENE 19:49:50 10° SSE
SJ-6B 2.9 19:43:00 10° S 19:46:43 72° WSW 19:50:27 10° NNW
In-Cosmos 22 4.3 19:41:38 10° N 19:46:45 46° ENE 19:51:47 10° SSE
Cosmos 1844 Rocket 4.2 19:41:56 10° SW 19:47:14 40° WNW 19:52:32 10° N
Cosmos 1937 Rocket 4.4 19:45:11 10° SSW 19:50:16 53° WNW 19:55:28 10° N
SeaSat 1 2.4 19:45:52 10° SSE 19:50:47 82° ENE 19:55:45 10° NNW
Cosmos 1812 Rocket 4.0 19:46:48 10° SSW 19:51:11 67° W 19:55:34 10° N
Yuri Rocket 4.4 19:50:08 10° WSW 19:53:44 26° S 19:56:31 14° SE
Meteor 1-29 4.3 19:51:36 10° NE 19:54:13 20° E 19:54:49 19° ESE
COSMOS 2487 4.3 19:55:27 10° NNE 19:57:34 15° ENE 19:57:38 15° ENE
Meteor 1-4 Rocket 3.0 19:54:31 10° SSE 19:57:43 36° E 20:00:56 10° NNE
Cosmos 1076 Rocket 4.2 19:55:48 10° NNE 19:59:36 31° ENE 20:02:04 18° SE
GP-B 4.0 19:56:43 13° SE 20:00:00 28° E 20:03:48 10° NNE
Cosmos 2344 4.0 19:52:50 10° SW 20:00:27 68° NW 20:08:51 10° NNE
Cosmos 1833 Rocket 3.8 19:55:59 10° N 20:00:33 25° ENE 20:02:59 19° E
FENGYUN 3A 3.8 19:56:24 10° S 20:01:48 77° WSW 20:07:13 10° NNW
Cosmos 2278 Rocket 2.4 19:56:14 10° SSW 20:01:54 75° WNW 20:07:36 10° NNE
Cosmos 1818 4.2 19:57:37 10° NNW 20:02:39 37° NE 20:05:43 21° ESE
Cosmos 1544 3.0 20:00:31 10° S 20:04:05 62° E 20:07:43 10° NNE
Resurs 01 Rocket 1.5 20:00:11 10° SSE 20:04:35 81° ENE 20:09:01 10° N
Helios 1B rocket 2.8 20:01:05 10° NNE 20:04:58 39° E 20:08:49 10° SSE
Delta 2 Rocket 3.9 20:01:53 10° W 20:06:35 53° SSW 20:09:04 23° SE
H-2A R/B 2.8 20:04:21 10° SSE 20:08:13 86° WSW 20:12:10 10° NNW
Cosmos 1766 Rocket 4.4 20:06:10 10° NNE 20:10:08 30° ENE 20:11:30 26° ESE
Cosmos 1758 3.2 20:06:22 10° S 20:10:16 62° E 20:14:13 10° NNE
GPS 2-05 Rocket1 3.5 20:07:35 10° SW 20:10:58 40° SSE 20:12:01 31° ESE
Lacrosse 4 Rocket 4.4 20:09:16 10° W 20:11:43 15° NW 20:14:11 10° NNW
Helios 1A 3.3 20:10:17 22° SE 20:12:37 44° ENE 20:16:36 10° N
Cosmos 2297 3.7 20:11:04 10° S 20:16:40 65° ESE 20:22:21 10° NNE
ATLAS 5 CENTAUR R/B 2.1 20:12:53 10° S 20:17:10 39° ESE 20:21:44 10° NE
Cosmos 1953 2.2 20:14:53 10° S 20:18:56 74° E 20:23:00 10° N
Cosmos 468 4.5 20:14:27 10° N 20:19:39 63° ENE 20:23:06 21° SSE
Cosmos 2098 Rocket 4.3 20:14:56 10° S 20:21:54 75° E 20:29:32 10° N
Cosmos-2242 3.3 20:20:40 28° SE 20:22:13 40° E 20:26:12 10° NNE
Cosmos 1939 Rocket 3.9 20:22:45 29° ENE 20:22:45 29° ENE 20:26:14 10° NNE
Cosmos 1605 Rocket 4.2 20:17:02 10° SSW 20:23:16 73° W 20:29:37 10° N
Cosmos 2100 Rocket 4.2 20:18:31 10° SSE 20:24:29 47° E 20:30:31 10° NNE
ALOS 4.0 20:26:14 10° SSW 20:30:25 33° W 20:34:37 10° NNW
Cosmos 372 Rocket 3.8 20:26:04 10° S 20:31:07 70° ESE 20:36:15 10° NNE
Cosmos 2082 Rocket 2.4 20:29:05 10° NNW 20:34:39 52° ENE 20:36:28 38° ESE
CZ-4B DEB 3.7 20:36:16 36° NNE 20:36:16 36° NNE 20:38:18 10° N
Cosmos 1271 Rocket 3.0 20:35:45 49° ENE 20:35:45 49° ENE 20:39:14 10° NNE
CZ-3B DEB 4.4 20:25:53 10° WSW 20:35:40 35° NW 20:40:37 10° NNE
Cosmos 1867 3.6 20:30:25 10° SSW 20:35:51 85° WNW 20:41:21 10° NNE
ISS -2.1 20:38:31 10° SW 20:39:59 24° SSW 20:39:59 24° SSW
Lacrosse 5 rocket 3.2 20:40:12 10° N 20:42:20 17° NNE 20:42:20 17° NNE
Cosmos 158 Rocket 4.0 20:38:30 10° N 20:43:34 58° ENE 20:44:33 49° ESE
Cosmos 1802 Rocket 4.0 20:40:58 24° SSE 20:44:32 53° E 20:50:29 10° NNE
DASH 3.8 20:30:15 10° WSW 20:44:45 45° S 20:46:07 36° SSE
USA 215 3.1 20:43:49 10° NE 20:50:23 87° SE 20:56:55 10° SW
Cosmos 2061 Rocket 3.9 20:50:01 10° S 20:56:20 74° E 21:02:46 10° N
Cosmos 1674 2.9 20:53:54 10° N 20:57:18 66° NW 20:57:18 66° NW
H-2A R/B 4.3 20:52:37 10° WSW 20:58:55 61° SSE 22:28:43 10° ESE
H-2A R/B 4.3 20:52:38 10° WSW 20:58:56 61° SSE 22:28:43 10° ESE
H-2A R/B 4.3 20:52:38 10° WSW 20:58:56 61° SSE 22:28:42 10° ESE
Envisat 2.9 21:00:25 51° S 21:01:45 84° WSW 21:06:51 10° NNW
H-2A R/B 4.3 21:04:42 12° NE 21:04:42 12° NE 21:05:22 10° NNE
Cosmos 1408 Rocket 3.9 20:59:29 10° NNW 21:03:54 64° W 21:04:45 51° SW
Timation 2 Rocket 3.8 20:57:48 10° NNW 21:04:07 75° ENE 21:05:10 61° SE
Tiangong 1 3.9 21:05:03 10° W 21:05:51 15° W 21:05:51 15° W
Lacrosse 5 4.4 21:05:45 10° WNW 21:09:18 19° NNW 21:12:50 10° NNE
CZ-3 Stage 3 3.3 20:39:37 10° W 21:11:05 64° SSW 21:13:09 49° SE
SPOT 5 4.4 21:14:57 27° NNE 21:14:57 27° NNE 21:17:51 10° N
Cosmos 1459 Rocket 4.2 21:12:23 10° SSW 21:18:38 67° W 21:24:49 10° N
USA 267 4.4 21:20:08 27° NE 21:21:12 29° NNE 21:26:36 10° NNW
ERS-1 Rocket 3.4 21:23:25 56° N 21:23:25 56° N 21:27:23 10° N
Cosmos 1470 4.3 21:22:57 34° W 21:23:06 34° W 21:26:45 10° NNW
Cosmos 2173 Rocket 4.3 21:17:15 10° SSW 21:23:19 62° W 21:29:31 10° N
Cosmos 1833 Rocket 3.6 21:39:20 10° NW 21:44:36 42° WSW 21:44:43 42° WSW
ATLAS 5 CENTAUR R/B 3.9 21:58:09 10° W 22:01:58 24° NW 22:06:03 10° N
Cosmos 2082 Rocket 4.3 22:14:26 10° WNW 22:18:13 19° W 22:18:22 19° WSW
